#timestamp,LO_Frequency,Hit,StdDev 
1635091215.2,286046997.9,N
1635091235.0,286046997.0,N
1635091235.9,286046997.0,N
1635091255.8,286046998.0,N
1635091275.6,286046999.6,N
1635091295.5,286046998.6,N
1635091315.3,286046999.2,N
1635091335.1,286046997.1,N
1635091355.9,286047001.1,N
1635091375.7,286047009.9,Y
1635091395.6,286047009.5,P
1635091415.4,286047009.0,N
1635091435.2,286047007.3,N
1635091455.1,286047004.7,N
1635091456.0,286047004.7,N
1635091475.8,286047007.1,N
1635091495.6,286047005.2,N
1635091515.5,286047004.6,N
1635091535.3,286047005.9,N
1635091555.2,286047003.4,N
1635091575.9,286047004.2,N
1635091595.7,286047003.8,N
1635091615.6,286047002.2,N
1635091635.4,286047001.9,N
1635091655.3,286047003.7,N
1635091675.1,286047001.5,N
1635091676.0,286047001.5,N
1635091695.8,286047002.6,N
1635091715.7,286047002.4,N
1635091735.5,286047002.1,N
1635091755.3,286047001.8,N
1635091775.2,286047006.3,N
1635091795.0,286047009.0,Y
1635091795.9,286047009.0,P
1635091815.8,286047004.3,N
1635091835.6,286047002.1,N
1635091855.4,286047000.2,N
1635091875.3,286046998.6,N
1635091895.1,286046998.5,N
1635091915.9,286046998.7,N
1635091935.7,286046999.5,N
1635091955.5,286046996.5,N
1635091975.4,286046997.1,N
1635091995.2,286046998.0,N
1635092015.0,286046995.3,N
1635092015.9,286046995.3,N
1635092035.8,286046997.7,N
1635092055.6,286046997.5,N
1635092075.5,286046997.3,N
1635092095.3,286046996.7,N
1635092115.1,286046996.8,N
1635092135.9,286046997.9,N
1635092155.7,286046996.5,N
1635092175.6,286047000.4,N
1635092195.4,286046997.1,N
1635092215.2,286046999.3,N
1635092235.1,286047002.1,N
1635092236.0,286047002.1,N
1635092255.8,286047000.7,N
1635092275.6,286046998.4,N
1635092295.5,286047002.5,N
1635092315.3,286047003.5,N
1635092335.2,286047002.7,N
1635092355.9,286047000.4,N
1635092375.7,286046999.7,N
1635092395.6,286046998.3,N
1635092415.4,286046999.6,N
1635092435.3,286047000.9,N
1635092455.1,286047000.9,N
1635092456.0,286047000.9,N
1635092475.8,286047000.4,N
1635092495.7,286047001.1,N
1635092515.5,286047000.5,N
1635092535.4,286047002.8,N
1635092555.2,286047002.7,N
1635092575.0,286047002.8,N
1635092575.9,286047002.8,N
1635092595.8,286047000.4,N
1635092615.6,286046998.5,N
1635092635.4,286047000.7,N
1635092655.3,286046998.8,N
1635092675.1,286046999.0,N
1635092695.9,286046998.9,N
1635092715.7,286046998.8,N
1635092735.5,286047001.1,N
1635092755.4,286046999.8,N
1635092775.2,286047000.5,N
1635092795.0,286046998.2,N
1635092795.9,286046998.2,N
1635092815.8,286046999.1,N
1635092835.6,286046999.1,N
1635092855.5,286046998.9,N
1635092875.3,286046999.0,N
1635092895.1,286046999.1,N
1635092915.9,286046996.5,N
1635092935.7,286046997.0,N
1635092955.5,286046996.8,N
1635092975.4,286046996.7,N
1635092995.2,286046996.8,N
1635093015.1,286046997.1,N
1635093016.0,286046997.1,N
1635093035.8,286046996.7,N
1635093055.6,286046997.5,N
1635093075.5,286046997.3,N
1635093095.3,286046995.6,N
1635093115.1,286046995.2,N
1635093135.9,286046995.5,N
1635093155.7,286046997.4,N
1635093175.6,286046998.8,N
1635093195.4,286046999.2,N
1635093215.2,286046998.9,N
1635093235.1,286046999.1,N
1635093236.0,286046999.1,N
1635093255.8,286046999.5,N
1635093275.7,286046997.0,N
1635093295.5,286046998.4,N
1635093315.3,286047004.0,Y
1635093335.2,286047003.6,P
1635093355.0,286047002.5,N
1635093355.9,286047002.5,N
1635093375.7,286046999.8,N
1635093395.6,286047002.3,N
1635093415.4,286047004.7,N
1635093435.3,286047010.4,Y
1635093455.1,286047007.0,P
1635093475.8,286047005.2,N
1635093495.7,286047002.9,N
1635093515.5,286047007.7,Y
1635093535.4,286047007.3,P
1635093555.2,286047003.0,N
1635093575.0,286047001.4,N
1635093575.9,286047001.4,N
1635093595.8,286047003.6,N
1635093615.6,286047007.6,Y
1635093635.4,286046999.9,P
1635093655.3,286046998.3,N
1635093675.1,286046999.2,N
1635093695.9,286046996.8,N
1635093715.7,286046995.4,N
1635093735.5,286046993.9,N
1635093755.4,286046994.6,N
1635093775.2,286046996.0,N
1635093795.1,286046993.3,N
1635093796.0,286046993.3,N
1635093815.8,286046994.1,N
1635093835.6,286046994.6,N
1635093855.5,286046994.1,N
1635093875.3,286046996.2,N
1635093895.2,286046996.1,N
1635093915.9,286046995.9,N
1635093935.7,286046993.3,N
1635093955.6,286046994.1,N
1635093975.4,286046996.3,N
1635093995.2,286046996.0,N
1635094015.1,286046995.9,N
1635094016.0,286046995.9,N
1635094035.8,286046993.4,N
1635094055.7,286046996.4,N
1635094075.5,286046994.0,N
1635094095.3,286046996.1,N
1635094115.2,286046995.8,N
1635094135.0,286046998.0,N
1635094135.9,286046998.0,N
1635094155.8,286046995.0,N
1635094175.6,286046996.1,N
1635094195.4,286046995.1,Y
1635094215.3,286046999.7,P
1635094235.1,286047002.3,N
1635094255.8,286047001.9,N
1635094275.7,286047002.5,N
1635094295.5,286047001.7,N
1635094315.4,286047001.7,N
1635094335.2,286047002.1,N
1635094355.0,286047001.9,N
1635094355.9,286047001.9,N
1635094375.8,286046999.7,N
1635094395.6,286047000.1,N
1635094415.4,286047000.2,N
1635094435.3,286047000.3,N
1635094455.1,286046999.7,N
1635094475.9,286047000.1,N
1635094495.7,286047000.2,N
1635094515.5,286047001.7,N
1635094535.4,286047003.9,N
1635094555.2,286047006.1,Y
1635094575.0,286047005.8,P
1635094576.0,286047005.8,N
1635094595.8,286047011.5,P
1635094615.6,286047008.0,N
1635094635.5,286047007.4,N
1635094655.3,286047004.6,N
1635094675.1,286047003.1,N
1635094695.9,286047001.7,N
1635094715.7,286047004.4,N
1635094735.6,286047004.3,N
1635094755.4,286047001.9,N
1635094775.2,286047001.5,N
1635094795.1,286047004.2,N
1635094796.0,286047004.2,N
